Regional Weather Roundup
Issued by NWS State College, PA

Home | Current Version | Previous Version | Graphics & Text | Print | Product List | Glossary On
Versions: 1 2 3 4 5 6 7 8 9 10 11 12 13 14 15 16 17 18 19 20 21 22 23 24 25 26 27 28 29 30 31 32 33 34 35 36 37 38 39 40 41 42 43 44 45 46 47 48 49 50
757
ASUS41 KCTP 212103
RWRCTP

REGIONAL WEATHER ROUNDUP
NATIONAL WEATHER SERVICE STATE COLLEGE PA
500 PM EDT SAT APR 21 2018

Note: "fair" indicates few or no clouds below 12,000 feet with no
significant weather and/or obstructions to visibility.

* = STATION THAT DOES NOT REPORT PRECIPITATION /E.G. RAIN...SNOW...ETC/
    THUNDER OR FOG.

PAZ002>004-007>009-013>016-020>023-029>032-212200-
WESTERN PENNSYLVANIA

CITY           SKY/WX    TMP DP  RH WIND       PRES   REMARKS
ERIE           FAIR      44  28  53 N7        30.42F
MEADVILLE      FAIR      52  29  41 N10       30.36F
FRANKLIN*      FAIR      55  19  24 VRB3      30.35F
NEW CASTLE     FAIR      56  19  23 N6        30.37F
BEAVER COUNTY  NOT AVBL
BUTLER*        FAIR      56  22  26 NE6       30.35F
PITTSBURGH INT CLOUDY    55  19  24 E6        30.34F
PITTSBURGH     FAIR      55  23  28 NW5       30.34F
INDIANA*       SUNNY     55  19  24 CALM      30.37F
LATROBE        CLOUDY    55  18  22 N7        30.35F
WASHINGTON CO* FAIR      55  26  32 N3        30.37F
$$

PAZ004>006-010>012-017>019-024>028-033>037-041-042-045-046-049>053-212200-
CENTRAL PENNSYLVANIA

CITY           SKY/WX    TMP DP  RH WIND       PRES   REMARKS
BRADFORD       FAIR      54  17  23 N13       30.33F
DUBOIS         FAIR      55  20  25 VRB5      30.32F
CLEARFIELD     FAIR      58  21  24 NW5       30.32F
JOHNSTOWN      FAIR      53  14  21 NW6       30.30F
ALTOONA        FAIR      59  24  26 SE3       30.32F
STATE COLLEGE  SUNNY     59  23  25 NW9       30.31F
WILLIAMSPORT   FAIR      61  15  16 NW8       30.30F
SELINSGROVE    FAIR      60  27  28 VRB7      30.32F
FT INDIANTOWN  FAIR      59  23  25 N6        30.32F
CAPITAL CITY   FAIR      61  27  27 VRB5      30.33F
HARRISBURG     CLOUDY    59  26  28 NW6       30.33F
YORK           FAIR      59  27  29 CALM      30.33F
$$

PAZ038>040-043-044-047-048-054-055-060>062-067>071-212200-
EASTERN PENNSYLVANIA

CITY           SKY/WX    TMP DP  RH WIND       PRES   REMARKS
SCRANTON       FAIR      56  21  25 W14       30.30F
MOUNT POCONO   FAIR      51  19  28 W16       30.28S
ALLENTOWN      FAIR      60  24  25 W9        30.29F
QUAKERTOWN*    CLEAR     59  27  29 W5G16     30.30F
READING        FAIR      60  29  30 W9        30.30F
LANCASTER      FAIR      57  29  34 W8        30.33F
COATESVILLE    FAIR      55  28  35 W8        30.34F
POTTSTOWN      FAIR      57  26  30 W5        30.32F
BLUE BELL      FAIR      55  28  35 W6        30.32F
DOYLESTOWN     NOT AVBL
WILLOW GROVE   NOT AVBL
NORTH PHILA    FAIR      61  28  28 NW12      30.32F
PHILADELPHIA   CLOUDY    59  25  27 NW10      30.32S
$$




USA.gov is the U.S. government's official web portal to all federal, state and local government web resources and services.